Wind_Speed
3 2 3 20 14 14 22 24 11 12 19 15 15 14 16 17 25 21 23 24 25 28 30 26 27 31 34 35 36 38 40 42 43 45 48 50 53 56 58 60 61 62 62 54
3 8 17 14 14 12 13 9 8 17 20 18 17 13 17 15 20 22 24 26 26 26 28 27 27 31 34 36 38 41 42 44 46 48 51 53 56 59 60 62 63 63 54 41
6 26 11 14 13 10 7 13 15 16 17 17 16 17 13 25 22 25 25 25 26 25 28 28 28 32 35 37 40 41 43 45 48 50 53 56 58 60 62 61 55 50 46 48
11 15 14 12 12 10 6 16 16 15 14 8 18 11 26 28 28 25 25 24 24 26 28 30 31 34 34 37 41 42 44 47 50 52 54 57 60 63 57 49 47 47 49 50
15 15 12 10 16 13 16 15 16 16 14 13 8 10 22 27 26 29 24 22 23 25 28 29 30 34 35 38 41 44 46 47 51 52 56 60 62 54 50 50 50 49 47 45
16 14 14 16 15 16 14 14 17 15 10 10 17 19 9 22 27 27 25 24 22 22 25 28 29 32 36 38 41 44 47 49 50 55 58 60 52 51 51 49 48 47 45 40
13 14 16 14 12 17 13 15 9 7 8 11 25 21 17 26 25 25 26 27 26 25 26 28 32 33 38 40 41 43 47 50 53 57 60 52 50 51 50 48 47 43 39 38
3 14 11 14 15 16 18 15 13 12 8 14 19 9 20 23 26 27 28 28 29 30 29 30 31 32 36 40 43 46 48 51 55 59 53 48 50 51 49 46 40 38 39 38
7 11 25 21 19 17 20 16 16 15 14 12 8 17 30 25 31 31 29 24 26 27 27 27 30 32 35 39 44 47 49 52 55 56 47 48 49 49 45 40 40 40 38 39
14 15 20 22 20 21 17 19 18 14 13 10 9 14 17 29 31 34 33 34 27 26 28 28 31 35 38 40 44 46 50 53 56 50 45 47 47 47 42 41 42 38 39 39
15 17 14 22 15 15 21 17 18 16 17 18 16 11 28 26 28 29 29 29 30 31 31 32 34 37 40 42 43 47 51 54 52 46 43 45 44 45 44 43 43 42 43 43
20 21 18 15 29 24 21 18 20 20 18 18 22 21 29 27 28 28 31 29 30 29 32 33 35 39 40 41 43 48 51 52 50 44 42 45 44 45 45 45 45 44 44 45
22 24 22 18 23 26 16 18 20 21 21 20 22 19 29 32 32 33 29 30 30 31 32 34 36 38 41 40 44 47 49 51 49 42 41 44 44 46 48 49 47 46 47 49
25 24 23 21 21 26 26 25 24 23 22 22 21 25 26 30 31 31 32 30 31 33 34 36 37 37 38 39 43 45 49 51 50 42 42 43 44 48 51 51 50 51 53 41
25 25 26 25 25 27 26 25 25 27 26 26 23 27 30 30 30 29 29 31 31 34 36 38 38 37 36 38 41 45 52 55 51 42 41 43 45 49 53 51 56 52 45 38
28 28 30 28 30 29 27 28 29 28 28 28 28 28 31 30 28 30 30 31 32 35 38 39 38 38 36 38 41 48 53 58 53 42 41 44 46 51 51 57 50 45 41 36
31 30 34 33 30 30 28 28 27 29 30 30 29 30 32 32 32 31 32 33 34 36 38 40 37 37 35 38 42 48 54 59 54 43 41 44 49 51 56 47 42 37 35 32
34 35 32 30 25 26 24 27 25 29 31 33 32 31 32 31 31 32 32 35 36 36 37 39 37 36 35 38 43 48 54 59 54 42 42 45 50 50 47 39 41 37 34 33
35 35 31 27 21 23 25 26 29 28 27 32 33 32 32 32 30 36 30 32 33 35 36 38 36 35 34 38 42 48 56 60 55 42 43 47 48 52 36 40 39 33 28 24
31 29 30 29 24 25 22 33 27 32 29 33 34 31 33 31 31 34 33 31 33 33 34 37 36 35 34 37 41 48 55 61 55 41 43 47 48 38 37 38 35 31 20 22
28 28 37 27 24 23 28 31 24 28 32 32 36 34 34 33 33 31 33 31 31 33 35 37 36 34 32 36 40 47 54 62 53 41 44 46 54 33 36 37 32 27 21 17
33 35 25 15 23 28 31 38 32 30 32 34 36 36 35 33 32 31 30 30 31 32 34 36 35 34 32 35 39 45 52 60 51 42 44 45 50 33 36 37 29 21 19 18
26 31 35 37 33 23 43 35 37 36 34 35 38 37 38 34 31 31 30 30 30 30 33 34 34 34 32 34 38 43 51 59 50 41 44 43 50 32 35 35 26 17 18 19
24 30 32 29 28 34 34 33 41 39 40 37 39 39 40 37 32 31 30 28 29 30 31 32 32 33 30 32 37 41 49 56 49 40 43 43 49 30 32 32 25 19 20 22
25 31 31 32 38 34 32 31 38 31 35 42 41 40 42 40 34 32 31 28 27 28 30 31 31 31 29 31 35 39 47 54 50 38 41 42 44 29 29 30 28 22 22 25
33 34 35 35 33 35 32 37 35 41 44 42 43 43 43 42 40 36 32 30 27 26 27 29 29 29 27 29 33 37 44 52 48 36 39 39 39 28 29 29 28 25 27 27
Wind_Direction
293 149 233 209 238 234 233 257 285 280 289 311 308 287 277 267 292 297 294 284 285 286 287 293 292 296 298 299 302 303 305 308 310 309 309 308 308 305 303 301 299 300 300 300
280 205 234 259 273 275 279 283 301 272 296 319 317 304 287 297 304 303 299 294 290 286 284 289 290 292 293 298 300 302 308 309 309 310 309 308 306 305 304 303 303 304 304 299
181 244 273 278 290 293 306 288 286 298 292 313 313 324 288 307 306 309 302 295 293 288 288 291 288 288 293 297 299 305 306 308 309 310 309 309 308 308 309 309 307 303 301 301
225 269 275 285 293 295 322 317 312 311 312 308 302 327 295 311 313 312 304 300 296 294 291 291 294 295 299 298 303 306 309 310 310 310 310 311 312 313 312 310 306 304 300 299
260 277 273 288 275 300 295 307 314 317 318 324 290 344 288 298 323 324 319 311 303 297 294 295 295 297 300 302 304 310 310 309 310 313 315 315 316 315 314 311 309 306 304 302
250 270 274 270 296 299 304 317 327 343 343 344 265 317 288 281 320 321 321 317 313 305 299 298 298 297 301 306 308 307 309 313 316 319 319 318 317 315 314 311 309 308 306 303
280 285 290 286 299 309 316 326 351 302 282 299 285 308 259 319 322 323 323 322 319 315 307 305 307 307 306 306 306 309 315 319 322 321 321 320 318 317 314 312 311 309 306 306
286 270 287 302 295 300 307 319 311 304 275 275 302 306 284 324 330 328 324 318 316 316 310 305 304 306 304 307 313 318 320 323 322 323 321 320 320 320 317 316 314 312 310 306
238 254 273 288 297 302 303 310 307 302 299 312 293 298 315 323 329 333 329 323 314 311 308 307 306 308 310 315 319 321 324 325 324 324 321 321 323 325 322 321 316 313 309 306
250 242 273 290 295 293 294 301 304 306 306 292 262 315 269 303 323 327 324 323 324 319 316 315 312 314 318 321 321 324 328 327 326 323 320 322 325 328 322 318 318 313 313 311
259 267 269 303 302 285 300 307 296 292 288 290 295 274 277 305 314 321 320 320 321 321 319 317 319 320 321 323 325 329 329 329 329 323 320 323 324 330 326 318 316 311 311 310
262 268 270 254 272 288 286 282 288 291 293 296 296 303 302 307 313 320 321 321 321 322 321 321 321 321 322 325 330 332 334 332 330 324 320 323 325 327 326 324 319 314 311 308
268 273 277 280 301 292 275 288 288 291 292 291 292 306 307 313 318 316 322 322 321 321 322 323 322 322 325 328 332 337 337 336 331 325 322 323 324 325 325 324 321 318 313 310
271 275 280 281 272 277 288 292 292 290 292 291 295 293 298 304 312 312 317 319 320 322 325 323 323 324 326 330 335 341 342 339 334 327 325 325 326 325 327 324 322 318 315 313
281 286 287 288 284 284 287 288 287 288 291 291 294 298 300 308 311 309 312 317 319 321 324 325 324 325 325 330 337 342 346 345 337 328 326 326 327 326 327 326 322 321 316 309
284 289 290 294 295 294 293 290 286 287 288 293 299 304 301 306 310 309 308 310 314 320 324 326 324 325 325 330 337 341 342 346 339 330 328 327 328 329 329 326 326 324 317 310
281 285 290 289 290 294 297 288 296 293 292 293 295 295 299 304 306 307 308 310 312 317 321 325 323 324 323 330 337 340 341 346 340 333 330 331 331 332 329 331 329 327 325 318
277 281 283 288 290 297 285 295 291 287 288 291 293 292 295 298 302 303 307 309 310 311 318 323 322 324 324 330 337 340 342 347 341 335 332 334 334 333 333 336 332 330 328 329
273 274 272 276 281 275 281 291 293 289 288 292 291 293 294 296 300 299 304 304 307 310 317 323 322 324 324 331 338 341 344 346 341 336 335 336 335 337 340 337 338 341 348 344
298 285 273 272 269 279 285 279 285 287 292 285 288 291 291 293 296 297 302 304 307 310 315 321 321 322 325 332 337 343 345 347 342 339 338 338 340 341 343 346 347 344 348 3
277 297 292 276 272 275 280 284 284 283 284 285 289 289 290 292 293 297 299 301 305 307 313 320 319 320 323 332 336 342 342 345 344 341 339 340 344 347 350 353 353 350 351 342
267 266 274 251 286 284 264 281 289 286 281 281 282 285 287 290 292 295 296 299 303 307 311 318 317 319 323 333 335 341 342 344 345 342 341 343 347 351 357 357 358 2 18 18
251 281 264 269 278 280 284 289 287 286 281 280 283 283 285 286 288 290 294 296 299 303 310 316 315 318 322 332 334 342 343 346 345 344 343 345 349 357 2 359 358 358 4 360
265 270 273 282 283 274 279 282 285 280 283 285 282 283 284 286 287 286 288 291 295 299 307 312 313 317 320 332 333 339 344 346 347 345 345 346 349 1 5 5 2 355 350 344
260 260 265 263 276 280 278 283 298 270 293 287 284 282 281 284 288 284 284 286 289 293 303 310 311 315 320 327 330 338 343 345 348 345 347 347 351 2 2 4 8 3 353 347
273 273 271 274 278 287 282 275 279 272 277 283 287 285 281 284 284 283 283 283 283 287 298 305 306 312 318 327 329 337 340 343 347 346 348 350 354 1 5 7 4 10 5 1
Height
5918 5921 5928 5922 5922 5921 5921 5921 5919 5919 5913 5911 5908 5908 5906 5904 5898 5895 5891 5887 5883 5881 5879 5874 5872 5868 5865 5861 5858 5853 5848 5845 5841 5836 5830 5823 5817 5810 5802 5793 5785 5777 5771 5766
5919 5922 5917 5918 5917 5917 5916 5916 5918 5913 5907 5906 5903 5901 5900 5897 5894 5891 5887 5883 5879 5877 5873 5870 5867 5864 5860 5856 5852 5846 5843 5838 5833 5827 5820 5814 5806 5797 5789 5780 5770 5759 5755 5752
5920 5916 5915 5914 5913 5913 5915 5911 5909 5908 5905 5902 5900 5898 5899 5893 5889 5886 5883 5879 5875 5872 5868 5865 5862 5858 5855 5850 5845 5842 5837 5831 5824 5819 5811 5802 5793 5784 5775 5765 5756 5749 5744 5739
5915 5911 5911 5911 5910 5910 5912 5907 5905 5904 5902 5902 5898 5899 5891 5888 5884 5881 5877 5874 5870 5866 5863 5859 5856 5852 5848 5845 5839 5835 5829 5822 5815 5808 5800 5791 5780 5770 5760 5753 5746 5740 5734 5729
5913 5908 5908 5908 5905 5906 5905 5904 5902 5900 5898 5897 5897 5897 5889 5886 5881 5875 5872 5869 5866 5863 5859 5855 5852 5846 5843 5839 5833 5826 5821 5815 5807 5798 5788 5776 5766 5756 5748 5741 5734 5727 5721 5715
5906 5905 5905 5904 5903 5902 5902 5901 5899 5897 5895 5898 5893 5893 5893 5884 5879 5873 5869 5865 5862 5858 5854 5850 5846 5843 5837 5832 5826 5820 5812 5805 5797 5787 5776 5765 5755 5747 5739 5731 5723 5716 5710 5704
5903 5902 5901 5901 5902 5899 5899 5898 5899 5901 5901 5901 5891 5890 5886 5879 5875 5870 5865 5860 5857 5853 5849 5844 5840 5836 5830 5825 5820 5813 5804 5795 5785 5775 5764 5754 5746 5737 5728 5720 5712 5706 5700 5696
5908 5902 5897 5897 5898 5897 5896 5896 5895 5894 5896 5894 5889 5887 5878 5874 5871 5866 5861 5857 5852 5847 5844 5840 5835 5831 5825 5818 5811 5803 5795 5786 5775 5765 5754 5745 5736 5727 5718 5710 5703 5698 5692 5687
5904 5904 5895 5895 5894 5894 5892 5892 5891 5889 5889 5887 5892 5885 5872 5870 5866 5860 5856 5853 5848 5844 5839 5834 5829 5824 5819 5811 5803 5795 5787 5777 5766 5756 5746 5737 5727 5717 5709 5702 5696 5690 5684 5678
5896 5897 5894 5889 5891 5890 5890 5888 5887 5885 5885 5885 5888 5883 5875 5867 5863 5858 5852 5846 5843 5839 5834 5829 5823 5817 5811 5804 5797 5788 5779 5768 5757 5747 5737 5729 5720 5711 5702 5695 5688 5681 5675 5668
5891 5891 5893 5890 5887 5888 5885 5885 5882 5882 5881 5879 5879 5881 5870 5866 5861 5856 5850 5844 5838 5834 5829 5823 5817 5810 5804 5797 5790 5781 5771 5760 5749 5738 5730 5722 5714 5704 5695 5687 5680 5672 5666 5659
5886 5886 5887 5889 5883 5883 5881 5880 5879 5877 5877 5875 5872 5870 5864 5860 5855 5851 5844 5840 5835 5830 5824 5818 5811 5804 5798 5791 5783 5774 5764 5753 5741 5731 5723 5714 5706 5697 5688 5679 5671 5663 5655 5648
5882 5882 5882 5883 5880 5877 5877 5876 5874 5873 5871 5870 5867 5866 5856 5852 5849 5843 5841 5835 5830 5825 5820 5813 5806 5798 5791 5784 5777 5767 5757 5746 5734 5723 5716 5707 5698 5689 5680 5671 5662 5653 5645 5637
5877 5877 5877 5878 5877 5874 5872 5870 5869 5867 5866 5864 5862 5858 5855 5849 5845 5840 5835 5831 5825 5820 5814 5807 5800 5792 5785 5779 5771 5762 5751 5739 5727 5717 5708 5700 5691 5681 5672 5662 5652 5642 5633 5624
5871 5871 5870 5870 5869 5867 5866 5865 5863 5861 5860 5857 5856 5852 5847 5843 5839 5835 5831 5825 5820 5815 5809 5801 5794 5787 5780 5773 5765 5756 5745 5732 5720 5709 5701 5693 5684 5673 5663 5652 5642 5631 5622 5614
5864 5864 5863 5863 5861 5860 5859 5858 5856 5854 5852 5850 5848 5846 5840 5837 5834 5829 5824 5820 5816 5810 5803 5796 5789 5782 5775 5768 5760 5750 5739 5727 5714 5703 5694 5686 5676 5665 5654 5643 5632 5622 5613 5606
5857 5857 5855 5855 5855 5854 5853 5849 5849 5846 5843 5843 5842 5839 5835 5831 5827 5823 5818 5814 5809 5804 5798 5791 5784 5777 5770 5763 5755 5745 5734 5721 5708 5697 5688 5679 5669 5658 5646 5634 5624 5614 5606 5597
5851 5850 5849 5846 5846 5846 5845 5843 5842 5840 5838 5835 5833 5831 5828 5825 5822 5817 5813 5808 5803 5799 5793 5786 5779 5772 5765 5758 5750 5740 5728 5715 5702 5691 5682 5673 5662 5651 5639 5629 5619 5608 5599 5591
5844 5842 5842 5841 5842 5842 5840 5835 5833 5832 5833 5828 5825 5823 5821 5818 5816 5808 5808 5803 5799 5793 5787 5781 5774 5767 5761 5754 5745 5735 5723 5710 5697 5686 5677 5667 5656 5645 5634 5625 5614 5604 5595 5587
5835 5834 5835 5834 5834 5834 5835 5825 5827 5824 5825 5820 5819 5817 5814 5812 5809 5804 5800 5797 5792 5787 5782 5776 5769 5763 5756 5749 5741 5730 5718 5706 5693 5682 5673 5663 5652 5640 5631 5620 5610 5601 5594 5588
5829 5824 5827 5824 5824 5827 5825 5819 5820 5819 5818 5814 5809 5807 5806 5804 5802 5800 5795 5791 5787 5782 5777 5771 5764 5758 5752 5746 5737 5727 5715 5703 5690 5679 5670 5660 5650 5638 5628 5618 5609 5601 5594 5589
5823 5821 5819 5817 5816 5815 5814 5812 5812 5810 5806 5804 5801 5798 5797 5796 5794 5792 5789 5785 5781 5776 5771 5766 5760 5754 5748 5742 5733 5723 5712 5700 5687 5677 5668 5657 5647 5637 5626 5616 5608 5601 5595 5591
5814 5813 5814 5813 5813 5808 5804 5803 5799 5797 5798 5796 5792 5791 5788 5787 5786 5784 5781 5779 5775 5771 5766 5760 5755 5749 5743 5737 5729 5721 5710 5698 5686 5676 5666 5655 5645 5635 5625 5616 5608 5602 5596 5591
5806 5806 5802 5801 5803 5799 5795 5794 5790 5789 5787 5787 5785 5783 5780 5779 5779 5776 5773 5771 5769 5765 5760 5755 5750 5745 5739 5734 5726 5718 5708 5697 5685 5675 5665 5654 5644 5634 5626 5617 5608 5602 5596 5590
5796 5793 5793 5794 5791 5788 5787 5785 5785 5777 5778 5778 5776 5775 5772 5772 5771 5768 5766 5764 5761 5758 5754 5750 5745 5741 5736 5731 5723 5715 5706 5696 5684 5674 5665 5654 5644 5635 5628 5619 5611 5603 5595 5587
5785 5785 5783 5781 5782 5780 5779 5775 5776 5774 5771 5768 5766 5765 5764 5763 5762 5761 5759 5757 5754 5751 5748 5745 5740 5737 5732 5727 5720 5713 5705 5695 5683 5674 5665 5656 5646 5637 5630 5621 5613 5604 5595 5585